Regional Weather Roundup
Issued by NWS

Home | Current Version | Previous Version | Text Only | Print | Product List | Glossary On
Versions: 1 2 3 4 5 6 7 8 9 10 11 12 13 14 15 16 17 18 19 20 21 22 23 24 25 26 27 28 29 30 31 32 33 34 35 36 37 38 39 40 41 42 43 44 45 46 47 48 49 50
000
ASUS43 KOAX 222302
RWRNE

WEATHER ROUNDUP FOR NEBRASKA
NATIONAL WEATHER SERVICE OMAHA NE
600 PM CDT SAT JUL 22 2017

NOTES: SATELLITE DATA IS BEING USED TO AUGMENT CLOUD COVER ABOVE
       12000 FEET.
       "FAIR" INDICATES FEW OR NO CLOUDS BELOW 12,000 FEET WITH NO
       SIGNIFICANT WEATHER AND/OR OBSTRUCTIONS TO VISIBILITY.


NEZ001>004-019>022-054>056-230000-
NEBRASKA PANHANDLE

CITY           SKY/WX    TMP DP  RH WIND       PRES   REMARKS
SCOTTSBLUFF    MOSUNNY   92  52  25 S14       30.05F
ALLIANCE       PTSUNNY   89  46  22 E8        30.06F
CHADRON        MOSUNNY   78  56  46 SE16      30.04F
GORDON         FAIR      81  56  42 CALM      30.07F
KIMBALL        MOSUNNY   85  48  27 SE17G23   30.14S
SIDNEY         PTSUNNY   89  43  20 S15       30.13F
$$

NEZ057>060-069>072-079>082-230000-
SOUTHWEST NEBRASKA

CITY           SKY/WX    TMP DP  RH WIND       PRES   REMARKS
NORTH PLATTE   CLOUDY    89  52  28 SE10      30.01F
IMPERIAL       PTSUNNY   89  38  16 E13       30.04F
LEXINGTON      CLOUDY    79  69  70 E5        29.99F
MCCOOK         CLOUDY    85  58  39 N13       29.99F
OGALLALA       MOSUNNY   91  35  14 E13       30.06S
$$

NEZ005>010-023>029-035>040-094-230000-
NORTH CENTRAL NEBRASKA

CITY           SKY/WX    TMP DP  RH WIND       PRES   REMARKS
VALENTINE      CLOUDY    94  49  21 VRB5      29.99F HX  90
AINSWORTH      MOSUNNY   91  52  26 CALM      30.01F
BROKEN BOW     CLOUDY    89  58  34 SE9       30.00F
O`NEILL        CLOUDY    86  69  55 CALM      29.99F HX  90
ORD            CLOUDY    83  69  62 E7        29.97F
THEDFORD       MOSUNNY   92  51  25 S7        30.04F
$$

NEZ041-046>049-061>064-073>077-083>087-230000-
SOUTH CENTRAL NEBRASKA

CITY           SKY/WX    TMP DP  RH WIND       PRES   REMARKS
GRAND ISLAND   MOSUNNY   82  74  76 N14       29.97R
AURORA         CLOUDY    82  75  80 N13       29.96R
HASTINGS       CLOUDY    85  72  65 N8        29.97S HX  91
HEBRON         MOSUNNY   91  75  59 NE12      29.87F HX 100
HOLDREGE       CLOUDY    81  69  67 N9        30.00R
KEARNEY        CLOUDY    84  73  69 N14       29.99S HX  90
YORK           CLOUDY    82  75  78 N15       29.94R
$$

NEZ011>018-030>034-042>045-230000-
NORTHEAST NEBRASKA

CITY           SKY/WX    TMP DP  RH WIND       PRES   REMARKS
NORFOLK        PTSUNNY   78  70  76 SW5       29.95F
ALBION         CLOUDY    80  74  81 N7        29.98F
BLAIR          LGT RAIN  83  74  75 N12       29.91F HX  90
COLUMBUS       CLOUDY    81  72  74 N8        29.94F
FREMONT        MOSUNNY   83  72  70 NW7       29.92F
TEKAMAH        CLOUDY    81  72  74 N7        29.91S
WAYNE          CLOUDY    79  78  98 NW3       29.94F
$$

NEZ050>053-065>068-078-088>093-230000-
SOUTHEAST NEBRASKA

CITY           SKY/WX    TMP DP  RH WIND       PRES   REMARKS
LINCOLN        CLOUDY    88  74  63 NE13      29.89F HX  96
OMAHA EPPLEY   CLOUDY    86  76  71 N18       29.88S HX  96
BEATRICE       CLOUDY    91  76  61 N13       29.86F HX 102
FALLS CITY     SUNNY     89  78  70 N10       29.83S HX 103
NEBRASKA CITY  CLOUDY    88  80  75 NE13      29.85F HX 104
PLATTSMOUTH    CLOUDY    87  76  69 N6        29.88F HX  97
$$

NEZ044-045-051>053-067-230000-
OMAHA AREA

CITY           SKY/WX    TMP DP  RH WIND       PRES   REMARKS
OMAHA EPPLEY   CLOUDY    86  76  71 N18       29.88S HX  96
BLAIR          LGT RAIN  83  74  75 N12       29.91F HX  90
FREMONT        MOSUNNY   83  72  70 NW7       29.92F
MILLARD        CLOUDY    89  77  67 N6        29.88F HX 102
OFFUTT AFB     CLOUDY    87  75  66 N8        29.86F HX  96
PLATTSMOUTH    CLOUDY    87  76  69 N6        29.88F HX  97
WAHOO          FAIR      83  74  74 N12       29.91S
$$



USA.gov is the U.S. government's official web portal to all federal, state and local government web resources and services.